UmKA 1 (RS40S)
1 57172U 23091G   26052.83281302  .00006276  00000-0  29962-3 0  9991
2 57172  97.5210 112.0034 0013905 156.5189 203.6683 15.19331059146480
CubeBel-2 (EU11S)
1 57175U 23091K   26052.77691142  .00011917  00000-0  46235-3 0  9994
2 57175  97.5203 115.1261 0011248 156.6005 203.5747 15.26207467146682
RS-38S
1 57189U 23091Z   26052.83038537  .00015072  00000-0  48803-3 0  9998
2 57189  97.5226 120.2640 0009106 120.4321 239.7821 15.32089457147005
SONATE-2
1 59112U 24043Q   26052.39723993  .00035525  00000-0  63347-3 0  9997
2 59112  97.5384 196.5625 0007911 267.2521  92.7824 15.49977405109905
MO-122
1 60209U 24125G   26052.78281619  .00038382  00000-0  63484-3 0  9990
2 60209  97.2468 268.4753 0011357 287.1514  72.8496 15.52044354 91600
GRBBeta
1 60237U 24128C   26052.70218146  .00003915  00000-0  27690-3 0  9994
2 60237  61.9886 261.1488 0052900 111.0329 249.6432 15.05571574 88872
Curium One
1 60242U 24128H   26052.73438788  .00007893  00000-0  47520-3 0  9992
2 60242  61.9775 254.0914 0052778 108.0654 252.6201 15.10419790 89001
ROBUSTA-3A
1 60243U 24128J   26052.70411873  .00006646  00000-0  41003-3 0  9991
2 60243  61.9850 256.0604 0053290 105.4506 255.2483 15.09718864 88979
CatSat
1 60246U 24125J   26052.13754920  .00041187  00000-0  80235-3 0  9990
2 60246  97.2230 264.0544 0027853 250.5296 109.2945 15.47005146 89383
HYPERVIEW-1G (RS66S)
1 61772U 24199AP  26052.81582390  .00056167  00000-0  81242-3 0  9994
2 61772  97.3112 288.4991 0008662 353.2626   6.8511 15.55698551116636
AO-123
1 61781U 24199AY  26052.82876651  .00008939  00000-0  27582-3 0  9992
2 61781  97.3175 282.5629 0014527   9.3518 350.7992 15.33697885116239
JINJUSat 1B
1 63210U 25052A   26052.63855339  .00016097  00000-0  56448-3 0  9996
2 63210  97.4139 309.4777 0005039 116.4067 243.7691 15.29514596 52417
NUSHSAT 1
1 63211U 25052B   26052.70438850  .00019505  00000-0  65084-3 0  9993
2 63211  97.4118 309.7871 0004871 118.1265 242.0469 15.31090175 52448
TEVEL2-4
1 63213U 25052D   26052.67635723  .00018071  00000-0  62058-3 0  9994
2 63213  97.4039 309.1517 0003791 126.2211 233.9381 15.30176524 52426
TEVEL2-5
1 63214U 25052E   26052.68610215  .00017695  00000-0  60985-3 0  9993
2 63214  97.4037 309.1370 0003736 126.1157 234.0429 15.30065261 52429
TEVEL2-6
1 63215U 25052F   26052.63009144  .00017736  00000-0  61211-3 0  9991
2 63215  97.4041 309.0675 0003846 128.0657 232.0931 15.30020162 52416
TEVEL2-1
1 63217U 25052H   26052.68946351  .00017185  00000-0  60048-3 0  9993
2 63217  97.4014 308.8742 0003503 137.5986 222.5526 15.29624004 52417
TEVEL2-3
1 63218U 25052J   26052.68739864  .00016853  00000-0  58836-3 0  9996
2 63218  97.4016 308.8828 0003491 138.8945 221.2559 15.29655602 52410
TEVEL2-2
1 63219U 25052K   26052.69014322  .00016779  00000-0  58639-3 0  9991
2 63219  97.4019 308.8755 0003443 139.3634 220.7864 15.29624474 52417
TEVEL2-9
1 63237U 25052AD  26052.66088765  .00016479  00000-0  60571-3 0  9995
2 63237  97.4076 308.4440 0006176 174.0433 186.0881 15.27960556 52365
TEVEL2-7
1 63238U 25052AE  26052.68299710  .00015059  00000-0  55725-3 0  9990
2 63238  97.4080 308.4225 0006389 173.9997 186.1320 15.27757660 52360
TEVEL2-8
1 63239U 25052AF  26052.68978429  .00015757  00000-0  58330-3 0  9992
2 63239  97.4078 308.4107 0006218 174.0679 186.0635 15.27735765 52367
HYDRA-W
1 63490U 25052BL  26052.66621760  .00131964  00000-0  18025-2 0  9997
2 63490  97.3967 313.1701 0007264 138.8081 221.3723 15.56984948 52690
HADES-ICM (SO-125)
1 63492U 25052BN  26052.73315020  .00098677  00000-0  16012-2 0  9993
2 63492  97.3982 312.6545 0006689 147.2604 212.9064 15.52374576 52661
RSP-03
1 65732U 98067XL  26047.27951905  .10199253  12460-4  79249-3 0  9991
2 65732  51.6061 154.7117 0006246 319.9198  40.1367 16.39378610 23558
BOTAN
1 65942U 98067XP  26052.59975990  .00609668  16728-3  14362-2 0  9994
2 65942  51.6138 134.8513 0009860   1.0978 359.0050 15.96170388 21031
CEVROSAT1
1 66309U 25248S   26052.25457125  .00005388  00000-0  26541-3 0  9996
2 66309  45.4060  22.7293 0002013 122.9611 237.1469 15.19064760 16871
SPIRONE
1 66657U 25274H   26052.80033590  .00002534  00000-0  24911-3 0  9997
2 66657  97.7428 343.8274 0013440  43.5589 316.6690 14.92953790 13000
K-HERO
1 66660U 25274L   26052.77168688  .00002028  00000-0  19801-3 0  9994
2 66660  97.7441 343.8722 0015515  47.0995 313.1524 14.93422051 13002
SNUGLITE-III DURI
1 66661U 25274M   26052.76452342  .00002401  00000-0  23283-3 0  9991
2 66661  97.7436 343.8782 0016138  48.2716 311.9881 14.93519190 13002
SilverSat
1 66909U 98067XV  26052.46917666  .00148121  00000-0  13740-2 0  9994
2 66909  51.6263 147.5901 0004276 349.0523  11.0379 15.66462804 12643
SAKHACUBE-CHOLBON
1 67290U 25313AU  26052.77967248  .00009233  00000-0  40102-3 0  9990
2 67290  97.4033 129.4046 0010471  48.6667 311.5469 15.22476877  8408
QMR-KWT
1 67291U 25313AV  26052.77294064  .00013255  00000-0  56700-3 0  9990
2 67291  97.4030 129.4132 0010054  47.9057 312.3033 15.22904904  8407
IO-86
1 40931U          25360.30710720  .00000000  00000-0  12800-3 0    00
2 40931   6.0006 332.5373 0012733 338.8432   8.1437 14.79075515    01
